Grand Island, NE

9:28 AM CDT on April 19, 2018 (GMT -0500)
Central Nebraska Regional

Weather History for KGRI - November, 2012

Change the Weather History Date:

Sunday, November 11, 2012

  Actual Average Record
Temperature  
Mean Temperature 27 °F 40 °F  
Max Temperature 34 °F 52 °F 77 °F (1912)
Min Temperature 20 °F 29 °F -8 °F (1986)
Degree Days  
Heating Degree Days 38 25  
Month to date heating degree days 222 241  
Since 1 July heating degree days 743 764  
Cooling Degree Days 0 0  
Month to date cooling degree days 0 0  
Year to date cooling degree days 1507 1034  
Moisture  
Dew Point 14 °F    
Average Humidity 58    
Maximum Humidity 78    
Minimum Humidity 38    
Precipitation  
Precipitation 0.00 in 0.04 in 0.94 in (2015)
Month to date precipitation 0.49 0.46  
Year to date precipitation 9.85 25.32  
Snow  
Snow 0.00 in 0.10 in 6.00 in (2000)
Month to date snowfall 0.0 0.8  
Since 1 July snowfall T 1.9  
Since 1 September snowfall T 1.9  
Snow Depth 0.00 in    
Sea Level Pressure  
Sea Level Pressure 30.06 in    
Wind  
Wind Speed 16 mph (NW)    
Max Wind Speed 30 mph    
Max Gust Speed 36 mph    
Visibility 10 miles    
Events      
T = Trace of Precipitation, MM = Missing Value Source: NWS Daily Summary

Daily Weather History Graph

Daily Weather History Graph

Search for Another Location

Airport or City:

Astronomy

Nov. 11, 2012 Rise Set
Actual Time 7:16 AM CST 5:17 PM CST
Civil Twilight 6:47 AM CST 5:46 PM CST
Nautical Twilight 6:14 AM CST 6:19 PM CST
Astronomical Twilight 5:41 AM CST 6:52 PM CST
Moon 4:31 AM CST (11/11) 3:42 PM CST (11/11)
Length of Visible Light 10h 59m
Length of Day
10h 01m
Waning Crescent, 7% of the Moon is Illuminated
Nov 11
Waning Crescent
Nov 13
New
Nov 20
First Quarter
Nov 28
Full
Dec 6
Last Quarter

Hourly Weather History & Observations

Time (CST) Temp. Windchill Dew Point Humidity Pressure Visibility Wind Dir Wind Speed Gust Speed Precip Events Conditions
12:53 AM 28.0 °F 13.9 °F 21.9 °F 78% 29.81 in 10.0 mi North 23.0 mph 29.9 mph N/A   Overcast
1:48 AM 26.6 °F 11.7 °F 19.4 °F 74% 29.83 in 10.0 mi NNW 24.2 mph 35.7 mph N/A   Overcast
1:53 AM 27.0 °F 13.2 °F 19.9 °F 75% 29.84 in 10.0 mi NNW 20.7 mph 31.1 mph N/A   Overcast
2:36 AM 26.6 °F 12.0 °F 19.4 °F 74% 29.85 in 10.0 mi NW 23.0 mph 28.8 mph N/A   Overcast
2:53 AM 26.1 °F 11.3 °F 19.0 °F 75% 29.86 in 10.0 mi NNW 23.0 mph 29.9 mph N/A   Overcast
3:05 AM 26.6 °F 12.0 °F 19.4 °F 74% 29.85 in 10.0 mi NNW 23.0 mph 29.9 mph N/A   Overcast
3:53 AM 25.0 °F 9.9 °F 17.1 °F 72% 29.87 in 10.0 mi NNW 23.0 mph 31.1 mph N/A   Overcast
4:53 AM 23.0 °F 7.6 °F 15.1 °F 72% 29.91 in 10.0 mi NNW 21.9 mph - N/A   Scattered Clouds
5:53 AM 21.0 °F 6.6 °F 12.0 °F 68% 29.97 in 10.0 mi NNW 17.3 mph 27.6 mph N/A   Clear
6:53 AM 19.9 °F 4.8 °F 12.0 °F 71% 30.00 in 10.0 mi NNW 18.4 mph 24.2 mph N/A   Clear
7:53 AM 19.9 °F 4.3 °F 10.9 °F 68% 30.01 in 10.0 mi NNW 19.6 mph 26.5 mph N/A   Clear
8:53 AM 21.0 °F 6.6 °F 10.0 °F 63% 30.05 in 10.0 mi NNW 17.3 mph 25.3 mph N/A   Clear
9:53 AM 23.0 °F 8.3 °F 9.0 °F 55% 30.09 in 10.0 mi NNW 19.6 mph 26.5 mph N/A   Clear
10:53 AM 25.0 °F 10.9 °F 9.0 °F 51% 30.09 in 10.0 mi NNW 19.6 mph - N/A   Clear
11:53 AM 28.9 °F 17.3 °F 10.0 °F 45% 30.09 in 10.0 mi NNW 16.1 mph 25.3 mph N/A   Clear
12:53 PM 30.9 °F 17.8 °F 10.0 °F 42% 30.09 in 10.0 mi NNW 23.0 mph 29.9 mph N/A   Clear
1:53 PM 32.0 °F 20.1 °F 10.0 °F 40% 30.08 in 10.0 mi NW 19.6 mph 28.8 mph N/A   Clear
2:53 PM 33.1 °F 21.9 °F 10.0 °F 38% 30.10 in 10.0 mi NNW 18.4 mph 26.5 mph N/A   Clear
3:53 PM 32.0 °F 22.5 °F 10.0 °F 40% 30.12 in 10.0 mi NW 12.7 mph - N/A   Clear
4:53 PM 30.9 °F 22.8 °F 12.0 °F 46% 30.15 in 10.0 mi NW 9.2 mph - N/A   Clear
5:53 PM 27.0 °F 19.5 °F 17.1 °F 66% 30.17 in 10.0 mi West 6.9 mph - N/A   Clear
6:53 PM 25.0 °F 18.1 °F 15.1 °F 66% 30.19 in 10.0 mi West 5.8 mph - N/A   Clear
7:53 PM 24.1 °F 17.0 °F 16.0 °F 71% 30.22 in 10.0 mi West 5.8 mph - N/A   Clear
8:53 PM 23.0 °F 14.7 °F 14.0 °F 68% 30.23 in 10.0 mi WSW 6.9 mph - N/A   Clear
9:53 PM 21.9 °F 12.5 °F 12.9 °F 68% 30.26 in 10.0 mi West 8.1 mph - N/A   Clear
10:53 PM 21.9 °F 11.0 °F 12.0 °F 66% 30.27 in 10.0 mi West 10.4 mph - 0.25 in   Clear
11:53 PM 21.0 °F 9.9 °F 12.9 °F 71% 30.28 in 10.0 mi West 10.4 mph - N/A   Clear